SL-14 DEB, 45327

Orbit data source: Space-Track

SL-14 DEB, 45327 is space debris in LEO originally from a launch on Thu, 15 Aug 1991 UTC launched from the Plesetsk Missile And Space Complex (PKMTR). Debris objects in space refer to the collection of defunct objects orbiting the Earth. Examples of debris include non-operational satellites, rocket bodies, and fragments generated from explosions, collisions, or faulty payload assembly.

Loading next visibility...
Identifier
45327, 1991-056BR
Orbit
LEO
Country
Flag of CISCIS
Related business
Manufacturer
Unknown
Mission
Spacecraft
Bus & Motor
Unknown
Mass
Unknown
Launch date (UTC)
1991-08-15 (34 years ago)
Launch vehicle
Unknown
Launch site
Plesetsk Missile And Space Complex (PKMTR)
Object type
Payload
Rocket body
Debris
Shape & HBR
Unknown shape, 0.1 m
Radar Cross Section
Small (<0.1 m²)

Expand to show TLE details & history
Last TLE update: 2 days ago

TLE from 2 days ago
0 SL-14 DEB
1 45327U 91056BR  26035.35281979  .00001523  00000-0  26980-2 0  9990
2 45327  82.5653 180.2484 0085955 205.0785 154.6166 13.40476976291736
Epoch: 2026-02-04T08:28Z
TLE epoch observation values (Epoch: 2026-02-04T08:28:03.629Z)
Latitude
0.00004°
Longitude
-81.28734°
Altitude
1,168.586 km
Speed
7.241 km/s
True Right ascension
12h 00m 59s
True Declination
0° 00' 00"
Sunlit
Object was in full shadow at epoch
Visualization orbit readout
Latitude
Unknown
Longitude
Unknown
Altitude
Unknown
Speed
Unknown
Apparent Right ascension
Unknown
Apparent Declination
Unknown
Sunlit
N/A
Visualization observer readout
Local Sidereal Time
05:35:46
Azimuth
Unknown
Elevation
Unknown
Doppler factor
Unknown
Orbital elements
Apogee altitude
1,169.033 km
Perigee altitude
1,040.395 km
Semi-major axis
7,482.851 km
Eccentricity
0.0086
Inclination
82.5653°
RAAN
180.2484°
Arg. of periapsis
205.0785°
True anomaly
155.03477°
Mean anomaly
154.6166°
Eccentric anomaly
154.82609°
Mean motion
3.35307 °/min
Orbital period
107.36 mins
BSTAR
0.002698
Loading maneuver chart data...
Computing Atmospheric mass density...
Loading historical data...
Loading historical data...
Loading historical data...
Loading historical data...
Loading historical data...
Loading historical data...
Loading historical data...

Documentation

Showing up to 5 results
|